When you browse on this site, cookies collect data to enhance your experience and personalize the content and advertising you see.
Visit our Privacy Policy to learn more. By continuing to use the site, you agree to this use of cookies and data.
  • In Hungary
  • List of Countries
  • For 7 days
  • Water Temperature
  • Weather Map
  • News
  • Weather Widgets
  • user-avatar
    Login

    Hourly Weather Krasnaya Gorka

    Today, 16 October, Wednesday

    Time Temperature Precipitation Wind Pressure Humidity
    00:00 +16°C° 0 mm 2 mps 762 mmHg 53%
    01:00 +16°C° 0 mm 2 mps 762 mmHg 55%
    02:00 +16°C° 0 mm 2 mps 762 mmHg 58%
    03:00 +15°C° 0 mm 1 mps 762 mmHg 63%
    04:00 +15°C° 0 mm 2 mps 762 mmHg 64%
    05:00 +14°C° 0 mm 2 mps 762 mmHg 66%
    06:00 +14°C° 0 mm 2 mps 762 mmHg 68%
    07:00 +15°C° 0 mm 2 mps 762 mmHg 65%
    08:00 +16°C° 0 mm 2 mps 763 mmHg 63%
    09:00 +17°C° 0 mm 3 mps 763 mmHg 60%
    10:00 +19°C° 0 mm 3 mps 763 mmHg 55%
    11:00 +20°C° 0 mm 3 mps 763 mmHg 49%
    12:00 +22°C° 0 mm 3 mps 763 mmHg 44%
    13:00 +22°C° 0 mm 3 mps 763 mmHg 43%
    14:00 +24°C° 0 mm 3 mps 762 mmHg 42%
    15:00 +25°C° 0 mm 3 mps 762 mmHg 40%
    16:00 +22°C° 0 mm 3 mps 762 mmHg 45%
    17:00 +21°C° 0 mm 3 mps 762 mmHg 50%
    18:00 +20°C° 0 mm 3 mps 762 mmHg 55%
    19:00 +19°C° 0 mm 3 mps 762 mmHg 59%
    20:00 +19°C° 0 mm 4 mps 763 mmHg 63%
    21:00 +18°C° 0 mm 4 mps 763 mmHg 67%
    22:00 +17°C° 0 mm 4 mps 763 mmHg 70%
    23:00 +17°C° 0 mm 4 mps 763 mmHg 72%

    Tomorrow, 17 October, Thursday

    Time Temperature Precipitation Wind Pressure Humidity
    00:00 +15°C° 0 mm 4 mps 762 mmHg 75%
    01:00 +15°C° 0 mm 4 mps 763 mmHg 77%
    02:00 +14°C° 0 mm 4 mps 763 mmHg 79%
    03:00 +14°C° 0 mm 4 mps 763 mmHg 82%
    04:00 +14°C° 0 mm 4 mps 763 mmHg 83%
    05:00 +13°C° 0 mm 4 mps 763 mmHg 85%
    06:00 +13°C° 0 mm 5 mps 763 mmHg 87%
    07:00 +13°C° 0 mm 5 mps 763 mmHg 83%
    08:00 +14°C° 0 mm 5 mps 763 mmHg 78%
    09:00 +15°C° 0 mm 5 mps 763 mmHg 74%
    10:00 +16°C° 0 mm 5 mps 762 mmHg 67%
    11:00 +19°C° 0 mm 5 mps 762 mmHg 60%
    12:00 +20°C° 0 mm 5 mps 762 mmHg 54%
    13:00 +21°C° 0 mm 5 mps 762 mmHg 51%
    14:00 +22°C° 0 mm 5 mps 762 mmHg 48%
    15:00 +22°C° 0 mm 5 mps 761 mmHg 45%
    16:00 +21°C° 0 mm 5 mps 761 mmHg 48%
    17:00 +20°C° 0 mm 4 mps 761 mmHg 52%
    18:00 +19°C° 0 mm 3 mps 761 mmHg 55%
    19:00 +18°C° 0 mm 4 mps 761 mmHg 58%
    20:00 +18°C° 0 mm 4 mps 761 mmHg 60%
    21:00 +17°C° 0 mm 4 mps 761 mmHg 62%
    22:00 +15°C° 0 mm 4 mps 761 mmHg 65%
    23:00 +16°C° 0 mm 3 mps 761 mmHg 67%

    Day after tomorrow, 18 October, Friday

    Time Temperature Precipitation Wind Pressure Humidity
    00:00 +14°C° 0 mm 3 mps 761 mmHg 70%
    01:00 +14°C° 0 mm 3 mps 760 mmHg 73%
    02:00 +13°C° 0 mm 3 mps 760 mmHg 75%
    03:00 +13°C° 0 mm 3 mps 760 mmHg 78%
    04:00 +12°C° 0 mm 3 mps 760 mmHg 80%
    05:00 +12°C° 0 mm 3 mps 760 mmHg 82%
    06:00 +12°C° 0 mm 3 mps 760 mmHg 84%
    07:00 +13°C° 0 mm 3 mps 760 mmHg 80%
    08:00 +13°C° 0 mm 3 mps 760 mmHg 75%
    09:00 +14°C° 0 mm 3 mps 760 mmHg 71%
    10:00 +17°C° 0 mm 3 mps 760 mmHg 65%
    11:00 +19°C° 0 mm 3 mps 760 mmHg 58%
    12:00 +21°C° 0 mm 3 mps 760 mmHg 51%
    13:00 +21°C° 0 mm 3 mps 760 mmHg 48%
    14:00 +23°C° 0 mm 2 mps 760 mmHg 45%
    15:00 +24°C° 0 mm 2 mps 759 mmHg 42%
    16:00 +23°C° 0 mm 2 mps 760 mmHg 45%
    17:00 +20°C° 0 mm 2 mps 760 mmHg 48%
    18:00 +19°C° 0 mm 2 mps 760 mmHg 51%
    19:00 +19°C° 0 mm 2 mps 760 mmHg 54%
    20:00 +18°C° 0 mm 2 mps 760 mmHg 56%
    21:00 +17°C° 0 mm 2 mps 760 mmHg 58%
    22:00 +17°C° 0 mm 2 mps 760 mmHg 59%
    23:00 +16°C° 0 mm 2 mps 760 mmHg 61%

    19 October, Saturday

    Time Temperature Precipitation Wind Pressure Humidity
    00:00 +16°C° 0 mm 2 mps 760 mmHg 62%
    01:00 +15°C° 0 mm 2 mps 760 mmHg 63%
    02:00 +15°C° 0 mm 2 mps 760 mmHg 64%
    03:00 +14°C° 0 mm 2 mps 761 mmHg 65%
    04:00 +13°C° 0 mm 3 mps 761 mmHg 66%
    05:00 +13°C° 0 mm 3 mps 761 mmHg 68%
    06:00 +13°C° 0 mm 3 mps 761 mmHg 69%
    07:00 +13°C° 0 mm 3 mps 761 mmHg 66%
    08:00 +14°C° 0 mm 3 mps 762 mmHg 62%
    09:00 +16°C° 0 mm 3 mps 762 mmHg 59%
    10:00 +18°C° 0 mm 3 mps 762 mmHg 53%
    11:00 +20°C° 0 mm 4 mps 762 mmHg 47%
    12:00 +21°C° 0 mm 4 mps 762 mmHg 42%
    13:00 +22°C° 0 mm 4 mps 762 mmHg 40%
    14:00 +22°C° 0 mm 3 mps 762 mmHg 39%
    15:00 +24°C° 0 mm 3 mps 761 mmHg 37%
    16:00 +21°C° 0 mm 3 mps 762 mmHg 42%
    17:00 +20°C° 0 mm 3 mps 762 mmHg 46%
    18:00 +19°C° 0 mm 3 mps 762 mmHg 51%
    19:00 +18°C° 0 mm 3 mps 762 mmHg 54%
    20:00 +17°C° 0 mm 3 mps 763 mmHg 58%
    21:00 +17°C° 0 mm 4 mps 763 mmHg 61%
    22:00 +15°C° 0 mm 4 mps 763 mmHg 64%
    23:00 +15°C° 0 mm 4 mps 763 mmHg 66%

    20 October, Sunday

    Time Temperature Precipitation Wind Pressure Humidity
    00:00 +14°C° 0 mm 4 mps 763 mmHg 69%
    01:00 +14°C° 0 mm 4 mps 763 mmHg 71%
    02:00 +13°C° 0 mm 4 mps 763 mmHg 73%
    03:00 +12°C° 0 mm 4 mps 764 mmHg 75%
    04:00 +12°C° 0 mm 4 mps 764 mmHg 75%
    05:00 +12°C° 0 mm 4 mps 764 mmHg 75%
    06:00 +11°C° 0 mm 4 mps 764 mmHg 75%
    07:00 +12°C° 0 mm 4 mps 765 mmHg 74%
    08:00 +13°C° 0 mm 4 mps 765 mmHg 73%
    09:00 +13°C° 0 mm 5 mps 765 mmHg 71%
    10:00 +15°C° 0 mm 4 mps 765 mmHg 65%
    11:00 +18°C° 0 mm 4 mps 765 mmHg 60%
    12:00 +19°C° 0 mm 4 mps 765 mmHg 54%
    13:00 +20°C° 0 mm 5 mps 765 mmHg 52%
    14:00 +20°C° 0 mm 5 mps 765 mmHg 50%
    15:00 +21°C° 0 mm 5 mps 765 mmHg 49%
    16:00 +20°C° 0 mm 4 mps 765 mmHg 52%
    17:00 +18°C° 0 mm 4 mps 765 mmHg 56%
    18:00 +17°C° 0 mm 4 mps 765 mmHg 60%
    19:00 +17°C° 0 mm 4 mps 765 mmHg 61%
    20:00 +15°C° 0 mm 4 mps 766 mmHg 61%
    21:00 +14°C° 0 mm 4 mps 766 mmHg 62%
    22:00 +14°C° 0 mm 4 mps 766 mmHg 64%
    23:00 +13°C° 0 mm 4 mps 766 mmHg 66%

    21 October, Monday

    Time Temperature Precipitation Wind Pressure Humidity
    00:00 +13°C° 0 mm 4 mps 766 mmHg 68%
    01:00 +12°C° 0 mm 4 mps 766 mmHg 69%
    02:00 +12°C° 0 mm 4 mps 766 mmHg 71%
    03:00 +11°C° 0 mm 4 mps 766 mmHg 73%
    04:00 +11°C° 0 mm 4 mps 767 mmHg 74%
    05:00 +11°C° 0 mm 4 mps 767 mmHg 76%
    06:00 +10°C° 0 mm 4 mps 767 mmHg 77%
    07:00 +11°C° 0 mm 4 mps 767 mmHg 73%
    08:00 +12°C° 0 mm 5 mps 767 mmHg 69%
    09:00 +13°C° 0 mm 5 mps 767 mmHg 65%
    10:00 +14°C° 0 mm 5 mps 767 mmHg 59%
    11:00 +16°C° 0 mm 5 mps 767 mmHg 54%
    12:00 +17°C° 0 mm 5 mps 767 mmHg 49%
    13:00 +17°C° 0 mm 5 mps 767 mmHg 47%
    14:00 +19°C° 0 mm 5 mps 767 mmHg 45%
    15:00 +19°C° 0 mm 5 mps 766 mmHg 43%
    16:00 +18°C° 0 mm 4 mps 766 mmHg 47%
    17:00 +17°C° 0 mm 4 mps 766 mmHg 50%
    18:00 +16°C° 0 mm 3 mps 766 mmHg 54%
    19:00 +14°C° 0 mm 3 mps 766 mmHg 56%
    20:00 +14°C° 0 mm 3 mps 766 mmHg 59%
    21:00 +13°C° 0 mm 3 mps 766 mmHg 61%
    22:00 +13°C° 0 mm 3 mps 766 mmHg 63%
    23:00 +12°C° 0 mm 3 mps 766 mmHg 65%
    Show more